Location: Orinda
(37.8771°N, 122.1797°W)
Time: 10:36:38
(UTC+00:00)

Meteor 1-4 Rocket - Pass Details

Date: 21 October 2019
Orbit: 450 x 503 km, 81.2° (Epoch: 12 November)

Event Time Altitude Azimuth Distance (km) Brightness Sun altitude
Exits shadow 12:33:27 26° 6° (N) 943 4.1 -22.3°
Drops below altitude 10° 12:35:04 10° 8° (N) 1,594 5.3 -22.0°
Sets 12:37:08 0° 9° (N) 2,468 6.3 -21.6°
